Flag for Norway Weather past 2 weeks in Volda, Norway

Now
75 °F

Sunny.


Feels Like: 77 °F
Forecast: 56 / 75 °F
Wind: 3 mph from North

Location: Orsta-Volda / Hovden

Current Time: Jul 24, 2014 at 1:38:47 PM

Latest Report: Jul 24, 2014 at 12:50 PM


Visibility: 10 mi

Pressure: 30.24 "Hg

Humidity: 65%

Dew point: 63 °F

Location of VoldaLocation

Historic Weather in Volda — Graph

°F

Volda temperature yesterday

Maximum temperature yesterday: 75 °F (at 3:50 PM)
Minimum temperature yesterday: 57 °F (at 5:50 AM)
Average temperature yesterday: 69 °F

Past Weeks' High & Low Weather Summary

 TemperatureHumidityPressure
High88 °F (Jul 9, 3:50 PM)100% (Jul 10, 5:50 AM)30.39 "Hg (Jul 10, 5:50 AM)
Low55 °F (Jul 10, 5:50 AM)31% (Jul 9, 3:50 PM)29.65 "Hg (Jul 14, 6:50 AM)
Average68 °F70%30.04 "Hg
* Reported Jul 9 2:50 PM — Jul 24 11:50 AM, Volda, Weather by CustomWeather, © 2014

Note: Actual official high and low records may vary slightly from our data, if they occured in-between our weather recording intervals... More about our weather records

Advertising

Volda weather history for previous 24 hours

 ConditionsComfort  
Time TempWeatherWind HumidityBarometerVisibility
11:50 AM
Jul 24
72 °FSunny.5 mph73%30.24 "Hg10 mi
10:50 AM70 °FFog.5 mph73%30.24 "HgN/A
9:50 AM68 °FFog.5 mph78%30.24 "HgN/A
8:50 AM66 °FFog.3 mph83%30.24 "HgN/A
7:50 AM64 °FPassing clouds.1 mph88%30.24 "HgN/A
6:50 AM61 °FPassing clouds.2 mph94%30.27 "HgN/A
5:50 AM57 °FPassing clouds.No wind94%30.27 "HgN/A
9:50 PM
Jul 23
66 °FSunny.3 mph83%30.30 "Hg10 mi
8:50 PM70 °FSunny.3 mph73%30.30 "Hg10 mi
7:50 PM72 °FPassing clouds.6 mph69%30.30 "HgN/A
6:50 PM73 °FPassing clouds.6 mph65%30.30 "HgN/A
5:50 PM75 °FPassing clouds.6 mph61%30.30 "HgN/A
4:50 PM75 °FPassing clouds.6 mph61%30.30 "HgN/A
3:50 PM75 °FSunny.6 mph61%30.33 "Hg10 mi
2:50 PM73 °FSunny.7 mph61%30.33 "Hg10 mi
1:50 PM73 °FSunny.6 mph65%30.33 "Hg10 mi
Weather by CustomWeather, © 2014

See weather overviewHow to use our weather pages